• In United Kingdom
  • List of Countries
  • For 7 days
  • Water Temperature
  • Satellite Maps
  • Weather Map
  • Weather Widgets
  • user-avatar
    Login

    Hourly Weather Nakhchivan

    Today, 23 October, Tuesday

    Time Temperature Precipitation Wind Pressure Humidity
    00:00 +18°C° 0 mm 1 mps 689 mmHg 55%
    01:00 +16°C° 0 mm 1 mps 689 mmHg 55%
    02:00 +16°C° 0 mm 1 mps 689 mmHg 57%
    03:00 +16°C° 0 mm 1 mps 688 mmHg 60%
    04:00 +15°C° 0 mm 1 mps 688 mmHg 61%
    05:00 +15°C° 0 mm 1 mps 688 mmHg 62%
    06:00 +14°C° 0 mm 1 mps 689 mmHg 64%
    07:00 +16°C° 0 mm 1 mps 689 mmHg 58%
    08:00 +18°C° 0 mm 1 mps 689 mmHg 52%
    09:00 +20°C° 0 mm 1 mps 689 mmHg 47%
    10:00 +21°C° 0 mm 1 mps 689 mmHg 44%
    11:00 +20°C° 0 mm 2 mps 689 mmHg 40%
    12:00 +21°C° 0 mm 2 mps 689 mmHg 37%
    13:00 +23°C° 0 mm 2 mps 688 mmHg 36%
    14:00 +23°C° 0 mm 2 mps 688 mmHg 36%
    15:00 +23°C° 0 mm 2 mps 688 mmHg 35%
    16:00 +21°C° 0 mm 2 mps 688 mmHg 38%
    17:00 +20°C° 0 mm 2 mps 688 mmHg 41%
    18:00 +19°C° 0 mm 2 mps 687 mmHg 44%
    19:00 +20°C° 0 mm 1 mps 687 mmHg 46%
    20:00 +19°C° 0 mm 1 mps 688 mmHg 48%
    21:00 +18°C° 0 mm 1 mps 688 mmHg 50%
    22:00 +18°C° 0 mm 1 mps 687 mmHg 51%
    23:00 +18°C° 0 mm 1 mps 687 mmHg 52%

    Tomorrow, 24 October, Wednesday

    Time Temperature Precipitation Wind Pressure Humidity
    00:00 +16°C° 0 mm 1 mps 687 mmHg 53%
    01:00 +16°C° 0 mm 1 mps 687 mmHg 54%
    02:00 +16°C° 0 mm 1 mps 687 mmHg 54%
    03:00 +15°C° 0 mm 1 mps 687 mmHg 55%
    04:00 +15°C° 0 mm 1 mps 686 mmHg 55%
    05:00 +15°C° 0 mm 1 mps 686 mmHg 56%
    06:00 +15°C° 0 mm 1 mps 686 mmHg 56%
    07:00 +16°C° 0 mm 2 mps 686 mmHg 52%
    08:00 +18°C° 0 mm 2 mps 687 mmHg 47%
    09:00 +19°C° 0 mm 2 mps 687 mmHg 43%
    10:00 +20°C° 0 mm 2 mps 686 mmHg 40%
    11:00 +21°C° 0 mm 3 mps 686 mmHg 38%
    12:00 +24°C° 0 mm 3 mps 686 mmHg 35%
    13:00 +23°C° 0 mm 4 mps 685 mmHg 35%
    14:00 +23°C° 0 mm 4 mps 684 mmHg 34%
    15:00 +25°C° 0 mm 4 mps 684 mmHg 34%
    16:00 +23°C° 0.1 mm 4 mps 684 mmHg 37%
    17:00 +22°C° 0.1 mm 3 mps 683 mmHg 40%
    18:00 +21°C° 0.1 mm 2 mps 683 mmHg 44%
    19:00 +21°C° 0.1 mm 2 mps 683 mmHg 46%
    20:00 +20°C° 0.1 mm 2 mps 683 mmHg 49%
    21:00 +19°C° 0.1 mm 2 mps 683 mmHg 52%
    22:00 +19°C° 0 mm 2 mps 683 mmHg 54%
    23:00 +18°C° 0 mm 2 mps 683 mmHg 56%

    Day after tomorrow, 25 October, Thursday

    Time Temperature Precipitation Wind Pressure Humidity
    00:00 +18°C° 0 mm 2 mps 682 mmHg 58%
    01:00 +17°C° 0 mm 2 mps 682 mmHg 59%
    02:00 +17°C° 0 mm 2 mps 682 mmHg 60%
    03:00 +16°C° 0 mm 3 mps 682 mmHg 61%
    04:00 +16°C° 0 mm 3 mps 682 mmHg 62%
    05:00 +16°C° 0 mm 3 mps 681 mmHg 64%
    06:00 +14°C° 0 mm 3 mps 681 mmHg 65%
    07:00 +17°C° 0 mm 4 mps 681 mmHg 60%
    08:00 +18°C° 0 mm 4 mps 681 mmHg 56%
    09:00 +20°C° 0 mm 5 mps 681 mmHg 51%
    10:00 +21°C° 0 mm 6 mps 680 mmHg 46%
    11:00 +22°C° 0 mm 7 mps 680 mmHg 42%
    12:00 +24°C° 0 mm 8 mps 679 mmHg 38%
    13:00 +24°C° 0.2 mm 8 mps 679 mmHg 35%
    14:00 +26°C° 0.2 mm 8 mps 678 mmHg 33%
    15:00 +26°C° 0.2 mm 8 mps 678 mmHg 30%
    16:00 +24°C° 0.3 mm 7 mps 678 mmHg 34%
    17:00 +22°C° 0.3 mm 6 mps 678 mmHg 38%
    18:00 +21°C° 0.3 mm 5 mps 678 mmHg 42%
    19:00 +21°C° 0.1 mm 4 mps 678 mmHg 45%
    20:00 +20°C° 0.1 mm 4 mps 678 mmHg 48%
    21:00 +19°C° 0.1 mm 4 mps 678 mmHg 51%
    22:00 +19°C° 0.1 mm 4 mps 678 mmHg 55%
    23:00 +18°C° 0.1 mm 4 mps 678 mmHg 58%

    26 October, Friday

    Time Temperature Precipitation Wind Pressure Humidity
    00:00 +18°C° 0.1 mm 4 mps 678 mmHg 61%
    01:00 +18°C° 0.1 mm 3 mps 678 mmHg 63%
    02:00 +17°C° 0.1 mm 3 mps 678 mmHg 65%
    03:00 +17°C° 0.1 mm 3 mps 678 mmHg 66%
    04:00 +17°C° 0.5 mm 3 mps 678 mmHg 68%
    05:00 +17°C° 0.5 mm 3 mps 678 mmHg 69%
    06:00 +17°C° 0.5 mm 3 mps 678 mmHg 70%
    07:00 +18°C° 0.2 mm 4 mps 679 mmHg 66%
    08:00 +19°C° 0.2 mm 5 mps 679 mmHg 62%
    09:00 +20°C° 0.2 mm 6 mps 679 mmHg 58%
    10:00 +20°C° 0.5 mm 6 mps 680 mmHg 55%
    11:00 +20°C° 0.5 mm 7 mps 680 mmHg 51%
    12:00 +20°C° 0.5 mm 8 mps 680 mmHg 48%
    13:00 +17°C° 0.7 mm 7 mps 680 mmHg 51%
    14:00 +16°C° 0.7 mm 6 mps 680 mmHg 54%
    15:00 +14°C° 0.7 mm 5 mps 680 mmHg 58%
    16:00 +13°C° 0.7 mm 5 mps 681 mmHg 59%
    17:00 +12°C° 0.7 mm 5 mps 682 mmHg 60%
    18:00 +10°C° 0.7 mm 5 mps 682 mmHg 61%
    19:00 +11°C° 0.3 mm 4 mps 684 mmHg 61%
    20:00 +11°C° 0.3 mm 3 mps 685 mmHg 61%
    21:00 +10°C° 0.3 mm 2 mps 686 mmHg 62%
    22:00 +10°C° 0 mm 2 mps 686 mmHg 62%
    23:00 +9°C° 0 mm 2 mps 687 mmHg 63%

    27 October, Saturday

    Time Temperature Precipitation Wind Pressure Humidity
    00:00 +10°C° 0 mm 1 mps 687 mmHg 64%
    01:00 +10°C° 0 mm 1 mps 688 mmHg 64%
    02:00 +9°C° 0 mm 1 mps 688 mmHg 64%
    03:00 +9°C° 0 mm 1 mps 689 mmHg 65%
    04:00 +9°C° 0 mm 1 mps 689 mmHg 64%
    05:00 +8°C° 0 mm 1 mps 690 mmHg 64%
    06:00 +8°C° 0 mm 1 mps 690 mmHg 63%
    07:00 +9°C° 0 mm 1 mps 691 mmHg 58%
    08:00 +10°C° 0 mm 1 mps 691 mmHg 52%
    09:00 +11°C° 0 mm 1 mps 691 mmHg 47%
    10:00 +12°C° 0 mm 1 mps 691 mmHg 43%
    11:00 +13°C° 0 mm 1 mps 691 mmHg 39%
    12:00 +14°C° 0 mm 1 mps 691 mmHg 35%
    13:00 +15°C° 0 mm 1 mps 691 mmHg 33%
    14:00 +15°C° 0 mm 1 mps 691 mmHg 32%
    15:00 +16°C° 0 mm 1 mps 691 mmHg 30%
    16:00 +15°C° 0 mm 1 mps 692 mmHg 33%
    17:00 +14°C° 0 mm 1 mps 692 mmHg 36%
    18:00 +13°C° 0 mm 1 mps 692 mmHg 39%
    19:00 +13°C° 0 mm 1 mps 692 mmHg 41%
    20:00 +12°C° 0 mm 1 mps 693 mmHg 42%
    21:00 +12°C° 0 mm 1 mps 693 mmHg 44%
    22:00 +12°C° 0 mm 1 mps 693 mmHg 45%
    23:00 +11°C° 0 mm 1 mps 693 mmHg 46%

    28 October, Sunday

    Time Temperature Precipitation Wind Pressure Humidity
    00:00 +11°C° 0 mm 1 mps 693 mmHg 47%
    01:00 +10°C° 0 mm 1 mps 693 mmHg 47%
    02:00 +10°C° 0 mm 1 mps 693 mmHg 47%
    03:00 +10°C° 0 mm 1 mps 693 mmHg 48%
    04:00 +9°C° 0 mm 1 mps 693 mmHg 48%
    05:00 +9°C° 0 mm 1 mps 693 mmHg 48%
    06:00 +8°C° 0 mm 0 mps 693 mmHg 48%
    07:00 +9°C° 0 mm 0 mps 694 mmHg 42%
    08:00 +11°C° 0 mm 0 mps 694 mmHg 37%
    09:00 +13°C° 0 mm 0 mps 694 mmHg 32%
    10:00 +15°C° 0 mm 1 mps 694 mmHg 30%
    11:00 +16°C° 0 mm 1 mps 694 mmHg 28%
    12:00 +18°C° 0 mm 1 mps 694 mmHg 25%
    13:00 +18°C° 0 mm 1 mps 694 mmHg 25%
    14:00 +19°C° 0 mm 1 mps 693 mmHg 24%
    15:00 +19°C° 0 mm 1 mps 693 mmHg 23%
    16:00 +18°C° 0 mm 1 mps 693 mmHg 27%
    17:00 +16°C° 0 mm 1 mps 693 mmHg 30%
    18:00 +15°C° 0 mm 1 mps 693 mmHg 34%
    19:00 +13°C° 0 mm 0 mps 693 mmHg 35%
    20:00 +13°C° 0 mm 0 mps 693 mmHg 36%
    21:00 +12°C° 0 mm 0 mps 693 mmHg 37%
    22:00 +12°C° 0 mm 0 mps 693 mmHg 38%
    23:00 +11°C° 0 mm 0 mps 693 mmHg 38%

    29 October, Monday

    Time Temperature Precipitation Wind Pressure Humidity
    00:00 +11°C° 0 mm 0 mps 693 mmHg 39%
    01:00 +11°C° 0 mm 0 mps 693 mmHg 39%
    02:00 +11°C° 0 mm 1 mps 693 mmHg 39%
    03:00 +11°C° 0 mm 1 mps 692 mmHg 39%
    04:00 +11°C° 0 mm 1 mps 692 mmHg 40%
    05:00 +10°C° 0 mm 1 mps 692 mmHg 40%
    06:00 +10°C° 0 mm 1 mps 692 mmHg 40%
    07:00 +12°C° 0 mm 1 mps 693 mmHg 36%
    08:00 +13°C° 0 mm 0 mps 693 mmHg 31%
    09:00 +15°C° 0 mm 0 mps 694 mmHg 27%
    10:00 +18°C° 0 mm 1 mps 694 mmHg 26%
    11:00 +19°C° 0 mm 1 mps 693 mmHg 25%
    12:00 +20°C° 0 mm 1 mps 693 mmHg 25%
    13:00 +21°C° 0 mm 1 mps 693 mmHg 25%
    14:00 +21°C° 0 mm 1 mps 693 mmHg 24%
    15:00 +21°C° 0 mm 1 mps 692 mmHg 24%
    16:00 +20°C° 0 mm 1 mps 692 mmHg 28%
    17:00 +19°C° 0 mm 1 mps 692 mmHg 32%
    18:00 +15°C° 0 mm 0 mps 692 mmHg 36%
    19:00 +16°C° 0 mm 1 mps 692 mmHg 36%
    20:00 +16°C° 0 mm 1 mps 692 mmHg 37%
    21:00 +15°C° 0 mm 1 mps 692 mmHg 38%
    22:00 +15°C° 0 mm 1 mps 692 mmHg 39%
    23:00 +14°C° 0 mm 1 mps 692 mmHg 40%
    Show more